Tiempo cada hora La Unión

Hoy, 28 Octubre, Miércoles

Tiempo Temperatura Precipitaciones Viento Presión Humedad
00:00 +8°C° 0.3 mm 1 mps 757 mmHg 98%
01:00 +8°C° 0 mm 1 mps 758 mmHg 98%
02:00 +7°C° 0 mm 1 mps 759 mmHg 98%
03:00 +6°C° 0 mm 1 mps 759 mmHg 98%
04:00 +6°C° 0 mm 1 mps 760 mmHg 98%
05:00 +7°C° 0 mm 1 mps 761 mmHg 97%
06:00 +7°C° 0 mm 0 mps 762 mmHg 96%
07:00 +9°C° 0 mm 0 mps 763 mmHg 94%
08:00 +11°C° 0.1 mm 1 mps 763 mmHg 80%
09:00 +13°C° 0.1 mm 1 mps 764 mmHg 65%
10:00 +15°C° 0.1 mm 1 mps 764 mmHg 51%
11:00 +15°C° 0 mm 1 mps 764 mmHg 50%
12:00 +15°C° 0 mm 2 mps 765 mmHg 48%
13:00 +15°C° 0 mm 2 mps 765 mmHg 47%
14:00 +15°C° 0 mm 2 mps 765 mmHg 48%
15:00 +15°C° 0 mm 2 mps 765 mmHg 50%
16:00 +15°C° 0 mm 2 mps 765 mmHg 51%
17:00 +13°C° 0 mm 2 mps 765 mmHg 59%
18:00 +11°C° 0 mm 1 mps 765 mmHg 67%
19:00 +9°C° 0 mm 1 mps 766 mmHg 76%
20:00 +8°C° 0 mm 1 mps 766 mmHg 80%
21:00 +6°C° 0 mm 1 mps 766 mmHg 84%
22:00 +5°C° 0 mm 1 mps 766 mmHg 89%
23:00 +5°C° 0 mm 1 mps 765 mmHg 90%

Mañana, 29 Octubre, Jueves

Tiempo Temperatura Precipitaciones Viento Presión Humedad
00:00 +4°C° 0 mm 1 mps 765 mmHg 91%
01:00 +4°C° 0 mm 1 mps 765 mmHg 92%
02:00 +4°C° 0 mm 1 mps 765 mmHg 94%
03:00 +4°C° 0 mm 1 mps 764 mmHg 95%
04:00 +3°C° 0 mm 2 mps 764 mmHg 96%
05:00 +4°C° 0 mm 2 mps 764 mmHg 89%
06:00 +6°C° 0 mm 2 mps 764 mmHg 83%
07:00 +7°C° 0 mm 3 mps 764 mmHg 76%
08:00 +10°C° 0 mm 3 mps 763 mmHg 67%
09:00 +12°C° 0 mm 3 mps 763 mmHg 58%
10:00 +14°C° 0 mm 3 mps 763 mmHg 48%
11:00 +16°C° 0 mm 3 mps 762 mmHg 44%
12:00 +18°C° 0 mm 3 mps 762 mmHg 40%
13:00 +19°C° 0 mm 3 mps 762 mmHg 36%
14:00 +19°C° 0 mm 3 mps 761 mmHg 38%
15:00 +18°C° 0 mm 3 mps 761 mmHg 39%
16:00 +18°C° 0 mm 3 mps 760 mmHg 40%
17:00 +16°C° 0 mm 3 mps 761 mmHg 46%
18:00 +13°C° 0 mm 2 mps 761 mmHg 52%
19:00 +10°C° 0 mm 2 mps 761 mmHg 59%
20:00 +9°C° 0 mm 2 mps 761 mmHg 64%
21:00 +8°C° 0 mm 2 mps 762 mmHg 70%
22:00 +7°C° 0 mm 2 mps 762 mmHg 76%
23:00 +6°C° 0 mm 2 mps 761 mmHg 82%

Pasado mañana, 30 Octubre, Viernes

Tiempo Temperatura Precipitaciones Viento Presión Humedad
00:00 +7°C° 0 mm 1 mps 761 mmHg 88%
01:00 +6°C° 0 mm 1 mps 761 mmHg 95%
02:00 +6°C° 0 mm 1 mps 761 mmHg 95%
03:00 +7°C° 0 mm 1 mps 761 mmHg 94%
04:00 +7°C° 0 mm 1 mps 761 mmHg 94%
05:00 +7°C° 0 mm 2 mps 761 mmHg 91%
06:00 +8°C° 0 mm 2 mps 761 mmHg 88%
07:00 +8°C° 0 mm 2 mps 761 mmHg 85%
08:00 +12°C° 0 mm 2 mps 760 mmHg 75%
09:00 +14°C° 0 mm 2 mps 760 mmHg 66%
10:00 +16°C° 0 mm 2 mps 760 mmHg 56%
11:00 +19°C° 0 mm 2 mps 760 mmHg 51%
12:00 +21°C° 0 mm 2 mps 759 mmHg 46%
13:00 +24°C° 0 mm 2 mps 759 mmHg 40%
14:00 +24°C° 0 mm 2 mps 759 mmHg 41%
15:00 +24°C° 0 mm 2 mps 759 mmHg 41%
16:00 +24°C° 0 mm 2 mps 758 mmHg 42%
17:00 +20°C° 0 mm 2 mps 759 mmHg 48%
18:00 +17°C° 0 mm 2 mps 759 mmHg 53%
19:00 +14°C° 0 mm 2 mps 759 mmHg 59%
20:00 +12°C° 0 mm 1 mps 759 mmHg 64%
21:00 +11°C° 0 mm 1 mps 759 mmHg 69%
22:00 +10°C° 0 mm 1 mps 759 mmHg 75%
23:00 +9°C° 0 mm 1 mps 759 mmHg 79%

31 Octubre, Sábado

Tiempo Temperatura Precipitaciones Viento Presión Humedad
00:00 +8°C° 0 mm 1 mps 759 mmHg 84%
01:00 +8°C° 0 mm 1 mps 759 mmHg 89%
02:00 +7°C° 0 mm 1 mps 759 mmHg 91%
03:00 +7°C° 0 mm 1 mps 759 mmHg 94%
04:00 +7°C° 0 mm 1 mps 758 mmHg 96%
05:00 +8°C° 0 mm 1 mps 758 mmHg 91%
06:00 +10°C° 0 mm 1 mps 758 mmHg 86%
07:00 +11°C° 0 mm 1 mps 759 mmHg 80%
08:00 +14°C° 0 mm 1 mps 758 mmHg 71%
09:00 +17°C° 0 mm 2 mps 758 mmHg 61%
10:00 +20°C° 0 mm 2 mps 758 mmHg 51%
11:00 +21°C° 0 mm 2 mps 757 mmHg 48%
12:00 +24°C° 0 mm 2 mps 757 mmHg 44%
13:00 +26°C° 0 mm 2 mps 757 mmHg 40%
14:00 +26°C° 0 mm 2 mps 757 mmHg 41%
15:00 +26°C° 0 mm 2 mps 757 mmHg 42%
16:00 +26°C° 0 mm 2 mps 757 mmHg 42%
17:00 +23°C° 0 mm 2 mps 757 mmHg 47%
18:00 +18°C° 0 mm 2 mps 757 mmHg 52%
19:00 +15°C° 0 mm 1 mps 758 mmHg 58%
20:00 +14°C° 0 mm 1 mps 758 mmHg 60%
21:00 +13°C° 0 mm 1 mps 758 mmHg 62%
22:00 +11°C° 0 mm 1 mps 758 mmHg 65%
23:00 +11°C° 0 mm 1 mps 758 mmHg 66%

1 Noviembre, Domingo

Tiempo Temperatura Precipitaciones Viento Presión Humedad
00:00 +10°C° 0 mm 1 mps 758 mmHg 68%
01:00 +9°C° 0 mm 1 mps 758 mmHg 70%
02:00 +9°C° 0 mm 1 mps 757 mmHg 75%
03:00 +7°C° 0 mm 0 mps 757 mmHg 80%
04:00 +6°C° 0 mm 0 mps 757 mmHg 86%
05:00 +8°C° 0 mm 0 mps 757 mmHg 79%
06:00 +11°C° 0 mm 1 mps 757 mmHg 71%
07:00 +13°C° 0 mm 1 mps 758 mmHg 64%
08:00 +16°C° 0 mm 1 mps 757 mmHg 56%
09:00 +20°C° 0 mm 1 mps 757 mmHg 48%
10:00 +23°C° 0 mm 1 mps 757 mmHg 41%
11:00 +25°C° 0 mm 1 mps 757 mmHg 37%
12:00 +26°C° 0 mm 1 mps 756 mmHg 34%
13:00 +28°C° 0 mm 1 mps 756 mmHg 31%
14:00 +28°C° 0 mm 1 mps 756 mmHg 33%
15:00 +27°C° 0 mm 1 mps 755 mmHg 35%
16:00 +27°C° 0 mm 1 mps 755 mmHg 38%
17:00 +24°C° 0 mm 1 mps 755 mmHg 47%
18:00 +20°C° 0 mm 1 mps 756 mmHg 56%
19:00 +16°C° 0 mm 1 mps 756 mmHg 66%
20:00 +14°C° 0 mm 1 mps 756 mmHg 70%
21:00 +13°C° 0 mm 1 mps 757 mmHg 74%
22:00 +11°C° 0 mm 1 mps 757 mmHg 78%
23:00 +10°C° 0 mm 0 mps 757 mmHg 84%

2 Noviembre, Lunes

Tiempo Temperatura Precipitaciones Viento Presión Humedad
00:00 +9°C° 0 mm 0 mps 756 mmHg 89%
01:00 +8°C° 0 mm 0 mps 756 mmHg 94%
02:00 +8°C° 0 mm 0 mps 756 mmHg 95%
03:00 +8°C° 0 mm 0 mps 756 mmHg 96%
04:00 +8°C° 0 mm 0 mps 756 mmHg 96%
05:00 +9°C° 0 mm 0 mps 756 mmHg 88%
06:00 +11°C° 0 mm 0 mps 756 mmHg 80%
07:00 +13°C° 0 mm 0 mps 756 mmHg 72%
08:00 +16°C° 0 mm 0 mps 756 mmHg 63%
09:00 +18°C° 0 mm 0 mps 756 mmHg 55%
10:00 +23°C° 0 mm 1 mps 755 mmHg 46%
11:00 +24°C° 0 mm 1 mps 755 mmHg 41%
12:00 +25°C° 0 mm 1 mps 755 mmHg 36%
13:00 +26°C° 0 mm 1 mps 755 mmHg 31%
14:00 +24°C° 0 mm 1 mps 755 mmHg 34%
15:00 +22°C° 0 mm 1 mps 755 mmHg 37%
16:00 +20°C° 0 mm 1 mps 755 mmHg 41%
17:00 +18°C° 0 mm 1 mps 755 mmHg 48%
18:00 +15°C° 0 mm 1 mps 755 mmHg 56%
19:00 +13°C° 0 mm 1 mps 755 mmHg 63%
20:00 +13°C° 0 mm 1 mps 755 mmHg 67%
21:00 +12°C° 0 mm 1 mps 756 mmHg 70%
22:00 +11°C° 0 mm 1 mps 756 mmHg 74%
23:00 +11°C° 0 mm 1 mps 755 mmHg 77%
Mostrar más

Necesitamos Su Consentimiento

Meteoprog y nuestros Proveedores de Servicios pueden almacenar y acceder a sus datos personales como cookies, identificadores de dispositivo u otras tecnologías similares de su dispositivo y procesar dichos datos para personalizar contenido y anuncios, además de ofrecer funciones de redes sociales y analizar el tráfico.

  • Almacenar y/o acceder a información en su dispositivo

    Se puede almacenar o acceder a cookies, identificadores de dispositivo u otra información de su dispositivo para los fines anteriormente indicados.

  • Anuncios y contenido personalizados, medición de anuncios y contenido, percepciones del público, y desarrollo de productos

    Los anuncios y el contenido pueden personalizarse en base a su perfil. Se pueden añadir más datos para personalizar mejor los anuncios y contenidos. Se puede medir el rendimiento de los anuncios y contenidos. Se puede obtener la percepción sobre el público que ha visto los anuncios y contenidos. Dichos datos pueden usarse para desarrollar o mejorar la experiencia del usuario, sistemas y software.

Al hacer clic en ‘Estoy De Acuerdo’ usted permitirá el uso de las cookies, identificadores de dispositivo, balizas web u otras tecnologías similares indicadas. Su configuración puede cambiarse desde el navegador de su dispositivo.

Para ciertos fines, los intereses legítimos pueden ser considerados por encima del consentimiento. Puede leer más sobre ello en nuestra Política de Privacidad y Cookies.